Terminal Aerodrome Forecast
Issued by NWS

Home | Current Version | Previous Version | Text Only | Print | Product List | Glossary On
Versions: 1 2 3 4 5 6 7 8 9 10 11 12 13 14 15 16 17 18 19
000
FTUS41 KBTV 301700
TAFRUT
TAF
KRUT 301733Z 3018/3118 20006KT P6SM SCT045 BKN080
     FM310000 14006KT P6SM SCT080
     FM311000 14005KT P6SM VCSH BKN050 OVC080
     FM311400 20007KT P6SM VCSH BKN045 OVC070
      AMD LTD TO CLD VIS AND WIND=

USA.gov is the U.S. government's official web portal to all federal, state and local government web resources and services.